Presure
288 277 261 119 270 255 249 253 252 180 233 206 205 90 198 134 189 189 177 161 161 164 156 159 153 161 151 152 156 154 153 158 160 158 157 151 145 151 146 150 150 151 150 148
296 279 275 264 277 255 134 86 251 250 169 247 213 170 173 186 184 202 186 171 170 148 142 159 162 155 153 157 160 148 144 152 150 150 149 144 146 151 152 151 147 150 155 156
291 284 288 301 302 256 252 248 159 245 237 159 206 210 122 71 66 185 138 188 171 166 166 155 159 157 154 160 156 156 155 150 152 158 156 154 151 150 154 157 151 144 147 157
287 289 281 313 295 257 253 255 260 263 262 255 224 164 192 179 151 141 182 188 176 171 168 164 164 163 162 159 156 128 130 130 149 146 147 155 157 157 156 156 160 160 156 128
296 301 289 290 261 282 251 252 249 250 254 266 271 217 156 194 185 154 134 180 185 189 178 168 168 166 161 161 163 161 130 125 129 126 151 155 156 156 157 157 160 160 163 173
275 296 286 282 290 281 255 246 246 252 255 254 250 269 211 177 185 185 185 183 185 176 166 176 185 171 171 166 165 167 166 162 160 161 159 159 159 160 161 163 171 173 166 172
287 287 290 287 298 288 302 252 244 249 251 261 254 250 261 240 203 183 185 190 186 180 181 177 173 180 182 175 176 173 174 173 172 170 169 170 172 176 178 170 176 178 165 180
288 283 304 306 286 305 289 262 259 254 254 248 248 250 252 257 254 225 182 186 191 185 182 183 180 176 172 176 174 179 175 173 179 179 178 177 175 174 179 176 174 185 150 162
304 290 284 280 280 288 310 319 251 317 260 247 247 246 244 244 255 261 200 229 173 187 191 186 185 181 178 177 165 155 161 155 153 175 162 170 173 173 177 160 162 175 168 172
283 301 298 265 279 284 292 289 311 344 298 245 243 238 235 230 234 240 247 212 238 203 189 192 189 189 189 186 183 180 179 178 178 179 181 181 174 168 172 170 178 184 171 184
327 287 288 299 284 267 257 251 299 287 335 365 232 298 234 224 224 229 236 241 248 243 250 198 196 188 187 189 190 188 182 179 179 180 181 184 185 184 183 177 184 186 184 192
285 301 314 316 303 332 332 327 301 280 254 258 353 383 281 353 241 231 237 238 240 240 253 252 221 199 196 192 188 188 189 187 181 178 176 179 177 183 188 186 189 193 190 199
316 292 289 296 297 304 302 295 298 315 326 298 285 296 339 342 293 354 329 265 264 235 248 249 246 257 251 205 200 197 192 189 190 190 190 187 186 188 190 192 198 194 193 198
292 298 290 284 291 296 288 295 294 296 319 337 334 315 312 319 333 326 335 306 295 289 274 207 191 245 255 259 251 222 210 206 203 201 201 199 198 193 191 191 195 195 235 250
280 276 282 278 279 291 286 283 286 293 297 300 320 306 321 317 301 309 315 309 292 287 281 280 270 242 241 246 253 252 247 238 229 227 229 222 216 226 234 233 262 266 252 257
279 276 276 272 273 273 272 270 280 277 282 280 287 308 279 299 301 310 285 279 294 289 278 274 277 280 277 276 274 270 256 251 248 245 239 239 236 227 233 219 246 252 254 247
277 285 279 276 274 272 277 278 278 275 271 274 275 273 287 293 295 304 313 294 284 274 276 282 280 272 264 261 260 257 254 245 284 259 261 250 272 256 262 251 248 246 241 238
299 290 278 292 268 269 273 265 262 264 267 271 269 264 262 265 275 280 291 298 318 285 274 267 267 263 260 262 265 264 260 261 272 277 262 256 259 253 242 242 243 240 239 242
269 295 302 290 287 278 271 263 268 261 256 251 252 264 262 261 257 266 268 275 284 291 309 273 264 259 257 271 263 277 268 266 254 260 253 251 240 244 240 238 243 251 247 278
248 242 259 295 297 284 279 270 268 272 267 269 268 266 255 254 262 257 261 269 267 269 273 273 280 262 273 252 248 242 241 248 249 234 237 238 239 235 237 241 237 277 281 272
257 246 242 277 292 291 288 288 289 284 285 285 267 285 267 267 265 268 267 278 264 259 262 265 272 268 279 270 247 247 242 243 232 240 233 232 238 243 234 264 272 273 267 254
262 257 248 244 287 285 274 274 273 268 275 283 285 286 295 294 265 262 258 255 269 277 269 260 265 267 271 273 258 240 235 235 245 241 235 235 249 264 256 263 263 260 257 246
271 262 258 254 247 270 281 275 269 264 267 267 272 278 278 281 265 257 259 262 257 259 269 263 258 258 252 250 256 254 252 251 248 245 247 262 250 254 252 252 246 267 249 238
282 280 264 255 253 250 273 292 268 285 266 261 261 270 277 277 272 275 261 252 268 250 244 255 259 249 248 240 243 238 233 240 247 249 247 248 247 247 241 234 262 248 239 235
277 278 286 266 258 252 247 261 280 280 281 266 261 253 259 268 272 276 273 269 259 249 245 251 255 250 250 245 250 248 241 244 237 245 247 242 239 237 224 255 257 238 231 228
279 275 278 284 261 256 250 245 258 260 289 278 274 263 254 257 257 261 266 270 270 270 266 261 253 248 244 249 243 238 237 256 246 246 239 236 227 226 242 253 244 228 245 254
Wind_Speed
90 96 67 13 113 116 117 120 121 95 122 109 109 30 109 55 96 104 104 87 92 93 72 82 74 88 78 80 85 81 77 80 82 83 84 81 73 82 79 83 84 84 82 76
89 89 93 100 110 116 47 17 119 123 84 121 113 87 86 94 92 101 104 101 100 67 60 84 90 82 79 85 87 67 58 77 76 78 79 72 78 84 85 84 79 84 90 92
83 84 87 81 91 116 118 118 65 120 120 78 107 112 48 24 21 95 65 105 99 96 96 80 87 86 84 92 86 85 83 74 77 86 85 85 84 84 88 93 85 74 78 95
82 85 87 71 89 115 117 119 118 117 115 116 116 83 105 93 74 67 94 100 94 98 98 98 99 99 97 89 85 57 56 62 76 71 72 87 91 92 92 94 98 98 94 65
80 79 82 84 100 90 116 113 110 111 112 113 112 109 74 104 93 80 68 93 98 102 100 101 103 103 94 90 96 96 64 60 62 61 84 91 94 95 96 96 101 102 103 109
77 78 82 85 87 88 113 109 108 109 107 104 104 107 110 86 100 100 98 96 100 95 89 97 104 102 104 100 97 99 102 99 94 96 94 93 94 97 99 102 106 106 99 104
81 78 77 79 78 91 84 111 102 99 96 102 103 103 100 107 106 98 100 103 98 94 99 97 95 102 104 104 104 103 104 106 105 103 101 103 104 104 104 96 100 105 96 107
76 70 72 72 79 69 89 95 109 100 104 101 101 89 92 98 99 111 102 105 108 101 102 102 101 99 95 99 98 102 101 99 104 104 103 102 98 97 102 99 97 106 86 92
71 69 69 71 74 76 62 61 83 84 107 100 99 87 91 91 93 94 114 105 87 103 110 106 106 103 99 97 87 85 86 83 82 97 88 93 93 93 98 90 92 98 95 97
57 64 69 62 68 66 69 74 68 51 73 91 99 93 96 92 92 95 98 112 108 112 103 108 105 106 109 107 105 101 99 98 99 100 104 104 96 92 96 94 102 111 97 111
35 55 55 57 62 62 58 58 56 57 43 33 83 71 107 96 93 96 99 100 99 104 104 112 113 105 105 106 108 108 104 100 100 101 102 106 108 107 107 101 107 111 109 115
25 29 31 34 41 40 36 35 41 53 60 60 25 25 72 48 109 104 109 103 103 103 101 101 112 115 114 111 109 109 110 108 102 98 97 100 98 105 110 109 112 115 112 120
27 21 22 25 29 33 33 29 30 26 27 42 46 46 36 43 68 57 70 104 112 108 107 100 99 100 107 118 117 116 113 109 110 111 110 106 109 109 111 114 119 116 115 119
19 24 29 26 28 29 27 26 26 26 16 14 23 36 39 42 40 53 62 78 83 88 111 83 73 99 100 102 107 116 118 118 119 119 121 120 118 115 112 112 116 117 115 102
16 19 21 23 23 24 25 24 24 22 21 18 20 28 24 31 46 41 52 64 77 82 88 95 107 97 93 96 100 102 105 109 113 115 115 115 117 113 111 110 90 81 90 79
18 21 22 24 25 25 26 27 27 27 25 26 21 21 43 36 39 47 58 61 57 69 80 84 86 88 94 98 101 104 103 103 103 102 103 103 103 103 103 102 92 79 74 78
22 24 27 27 27 27 25 30 29 29 29 29 31 31 20 24 28 30 41 64 71 74 70 64 68 80 88 90 90 92 94 94 63 94 91 89 68 80 70 76 76 76 76 79
19 26 25 31 34 32 33 34 35 33 31 32 32 36 39 39 35 34 30 35 41 74 74 75 77 78 79 75 68 71 79 80 67 58 65 68 65 66 75 77 75 78 78 80
13 18 29 31 31 33 35 38 36 38 40 44 44 39 43 43 46 39 41 37 38 40 49 74 72 71 69 47 60 49 50 49 56 54 57 60 68 68 71 75 77 78 77 66
17 17 17 24 32 32 33 33 34 35 37 40 42 45 48 48 44 48 45 42 44 44 44 48 51 64 65 71 66 67 64 59 55 64 64 65 66 70 73 73 71 66 56 57
21 21 21 22 25 29 33 33 35 36 40 39 41 39 47 45 45 40 41 36 47 47 45 44 47 48 50 67 63 62 61 59 63 61 63 68 69 68 69 67 56 55 53 50
27 25 24 24 26 26 26 26 27 27 27 27 31 34 35 38 48 47 46 44 38 43 47 46 41 38 42 45 63 63 63 64 66 66 66 67 65 54 56 51 51 49 49 47
31 30 27 26 25 24 28 29 30 29 28 28 27 29 33 32 47 47 45 44 41 40 36 39 41 41 42 44 44 48 51 52 52 55 56 48 51 50 50 49 47 47 44 45
31 33 33 30 27 26 26 28 30 35 34 32 30 26 27 32 38 40 50 47 43 45 44 42 42 43 44 47 48 49 51 53 52 49 46 46 46 48 51 47 48 42 43 45
35 32 34 35 33 31 28 26 27 31 34 36 33 32 29 28 28 32 38 44 47 47 46 45 45 46 46 48 47 47 48 46 48 46 43 43 45 49 46 51 47 39 42 45
38 36 36 36 37 36 32 30 30 29 33 36 38 37 34 33 32 31 31 34 36 39 43 46 48 51 52 51 48 49 49 42 43 41 42 43 47 46 47 48 42 40 42 43
Wind_Direction
208 208 207 233 204 209 212 214 215 221 220 220 220 238 224 219 220 223 226 233 236 238 243 237 244 241 246 247 249 253 255 254 255 259 263 268 273 270 277 277 280 282 285 289
211 206 206 207 203 209 212 216 217 219 223 220 220 226 228 226 224 225 225 231 232 242 242 243 240 249 253 249 247 256 260 258 259 260 264 271 276 274 275 278 283 284 285 286
210 206 207 207 208 209 214 218 219 220 222 223 222 222 235 228 248 227 225 230 232 236 239 243 247 248 249 249 254 256 257 262 266 261 262 265 270 275 276 276 281 284 286 289
211 207 206 209 209 209 215 219 219 221 223 224 223 226 225 229 229 229 230 231 234 234 238 242 243 246 249 252 253 246 247 253 265 271 273 275 274 275 278 279 279 280 281 274
209 209 209 210 211 215 213 220 223 223 224 225 227 223 232 229 231 231 232 233 235 236 236 239 242 244 249 252 253 255 250 252 253 256 270 273 275 277 278 280 282 283 284 284
212 211 212 212 213 215 214 221 225 227 227 227 228 231 226 233 232 234 234 235 234 235 237 240 242 244 247 251 254 255 256 259 262 264 267 269 271 273 274 276 277 280 284 285
211 214 213 216 219 218 219 220 226 230 233 231 231 231 233 230 231 236 237 237 238 239 239 241 242 245 247 249 252 254 255 257 259 261 265 268 269 271 272 276 279 280 280 283
215 218 213 214 220 223 223 224 224 229 231 234 234 233 235 238 236 232 237 239 239 239 240 242 244 245 246 248 251 253 255 258 261 263 265 268 270 272 274 274 276 280 278 276
212 217 222 224 225 225 227 234 230 233 230 234 239 240 240 240 240 239 234 239 237 241 240 241 243 246 249 251 250 254 255 258 260 262 263 266 269 271 274 272 273 279 277 280
222 218 220 225 229 230 232 235 236 241 235 233 238 239 240 241 241 239 239 236 239 240 243 244 245 247 248 251 253 256 258 259 261 263 266 269 269 269 272 273 278 281 279 282
216 228 229 229 231 233 233 231 243 237 245 243 229 235 236 238 237 241 242 241 242 241 244 244 246 248 251 252 253 255 257 259 261 263 265 267 270 272 274 275 277 279 279 283
213 218 217 217 229 217 213 220 242 240 230 227 225 232 231 224 237 240 245 245 246 243 246 245 246 247 250 252 254 256 257 259 261 264 266 268 269 272 274 276 278 280 281 283
203 211 217 220 224 220 228 232 233 237 241 231 228 228 225 223 232 223 225 240 243 247 247 247 247 250 250 250 252 255 259 261 263 265 266 270 272 273 275 276 277 279 281 282
179 194 205 211 221 223 214 211 217 224 231 246 222 224 225 221 221 223 224 229 234 238 243 247 245 248 251 252 253 253 256 258 260 263 264 267 270 272 273 276 277 279 282 286
194 191 200 196 205 204 204 212 214 210 208 216 221 212 222 222 220 227 227 228 233 238 241 244 247 250 251 254 256 257 258 259 260 261 264 265 267 271 274 277 281 282 284 285
212 208 206 205 197 202 206 214 210 213 208 204 206 206 223 222 222 220 223 228 230 235 240 244 248 250 252 254 256 258 259 260 262 264 265 268 271 272 276 276 280 282 285 285
215 215 213 212 211 206 204 204 212 207 210 212 205 216 220 230 233 238 235 228 226 233 236 237 242 247 251 254 257 259 261 262 259 267 269 271 270 275 276 278 279 281 283 285
229 226 222 220 212 205 205 209 214 211 206 205 209 215 220 224 229 237 238 238 235 231 236 241 245 249 252 254 255 255 259 263 266 266 269 269 272 275 275 277 279 280 283 285
241 234 234 238 231 225 219 213 212 219 220 224 225 215 222 224 229 229 234 236 236 237 237 236 244 247 253 249 256 260 262 262 267 267 268 270 271 273 275 277 278 282 284 286
247 251 251 237 238 239 237 232 228 228 224 222 222 221 227 231 229 235 233 231 237 238 238 238 238 245 242 251 256 259 262 263 263 266 268 270 271 273 276 279 283 288 284 286
246 246 247 246 238 235 241 243 246 244 245 242 233 230 227 228 228 227 233 231 235 239 239 241 241 247 249 242 251 257 260 260 264 266 269 270 274 277 279 283 285 285 286 285
250 247 245 248 248 240 240 237 237 239 244 243 243 243 241 237 231 229 237 241 232 232 237 243 243 243 242 245 244 253 259 263 267 266 269 273 278 278 282 285 286 286 286 286
249 252 252 249 248 249 246 242 237 237 237 237 238 236 234 232 232 235 237 235 237 240 234 236 241 241 245 249 247 251 255 257 262 267 272 271 275 279 282 284 286 292 288 286
252 247 250 253 253 251 252 242 244 238 237 235 236 237 235 233 231 231 237 239 237 241 245 244 239 243 244 250 253 256 260 263 265 267 267 271 275 278 280 285 292 287 284 283
252 250 245 247 250 252 250 256 247 242 240 239 239 239 239 239 240 240 239 238 241 243 246 245 244 248 248 251 251 254 257 259 263 263 265 268 273 277 281 291 291 284 281 280
251 251 248 244 245 248 249 247 250 249 239 240 240 241 244 242 241 240 240 241 242 244 245 247 247 250 253 251 251 255 257 253 256 258 261 267 272 279 286 289 288 280 292 296